TimeCDT,TemperatureF,Dew PointF,Humidity,Sea Level PressureIn,VisibilityMPH,Wind Direction,Wind SpeedMPH,Gust SpeedMPH,PrecipitationIn,Events,Conditions,WindDirDegrees,DateUTC
12:53 AM,84.0,55.0,37,29.63,-9999.0,SE,5.8,-,N/A,,Unknown,140,2013-05-20 05:53:00
1:53 AM,81.0,55.0,41,29.63,-9999.0,Calm,Calm,-,N/A,,Unknown,0,2013-05-20 06:53:00
2:53 AM,78.1,55.9,46,29.62,-9999.0,NE,4.6,-,N/A,,Unknown,50,2013-05-20 07:53:00
3:53 AM,77.0,57.9,52,29.61,-9999.0,Calm,Calm,-,N/A,,Unknown,0,2013-05-20 08:53:00
4:53 AM,75.9,63.0,64,29.63,-9999.0,ESE,5.8,-,N/A,,Unknown,120,2013-05-20 09:53:00
5:53 AM,75.0,66.9,76,29.65,-9999.0,NE,3.5,-,N/A,,Unknown,50,2013-05-20 10:53:00
6:53 AM,73.9,66.9,79,29.67,-9999.0,East,4.6,-,N/A,,Unknown,80,2013-05-20 11:53:00
7:53 AM,75.9,69.1,79,29.69,-9999.0,East,5.8,-,N/A,,Unknown,90,2013-05-20 12:53:00
8:53 AM,77.0,66.9,71,29.72,-9999.0,East,6.9,-,N/A,,Unknown,80,2013-05-20 13:53:00
9:53 AM,79.0,66.9,66,29.73,-9999.0,East,5.8,-,N/A,,Unknown,100,2013-05-20 14:53:00
10:53 AM,82.9,64.9,54,29.73,-9999.0,Variable,4.6,-,N/A,,Unknown,0,2013-05-20 15:53:00
11:53 AM,89.1,61.0,39,29.71,-9999.0,East,6.9,-,N/A,,Unknown,80,2013-05-20 16:53:00
12:53 PM,93.0,54.0,27,29.69,-9999.0,Variable,3.5,-,N/A,,Unknown,0,2013-05-20 17:53:00
1:53 PM,98.1,43.0,15,29.66,-9999.0,East,8.1,-,N/A,,Unknown,90,2013-05-20 18:53:00
2:53 PM,98.1,46.9,18,29.64,-9999.0,Variable,3.5,-,N/A,,Unknown,0,2013-05-20 19:53:00
3:53 PM,98.1,46.9,18,29.62,-9999.0,South,9.2,-,N/A,,Unknown,180,2013-05-20 20:53:00
4:53 PM,99.0,41.0,14,29.59,-9999.0,ESE,6.9,-,N/A,,Unknown,120,2013-05-20 21:53:00
5:53 PM,99.0,37.9,12,29.57,-9999.0,Variable,4.6,17.3,N/A,,Unknown,0,2013-05-20 22:53:00
6:53 PM,99.0,36.0,11,29.55,-9999.0,Variable,3.5,-,N/A,,Unknown,0,2013-05-20 23:53:00
7:53 PM,96.1,39.0,14,29.55,-9999.0,SE,12.7,-,N/A,,Unknown,140,2013-05-21 00:53:00
8:53 PM,91.0,48.0,23,29.58,-9999.0,SSE,11.5,-,N/A,,Unknown,150,2013-05-21 01:53:00
9:53 PM,88.0,52.0,29,29.60,-9999.0,SSE,8.1,-,N/A,,Unknown,150,2013-05-21 02:53:00
10:53 PM,87.1,61.0,41,29.62,-9999.0,SSE,12.7,18.4,N/A,,Unknown,160,2013-05-21 03:53:00
11:53 PM,86.0,64.0,48,29.62,-9999.0,SSE,6.9,-,N/A,,Unknown,160,2013-05-21 04:53:00